Погода в Благовещенье

Россия / Вологодская область     60°43′47″N   46°06′05″E
темп.,
°C
ветер,
м/с
пор.,
м/с
влажн.,
%
обл.,
%
осадки,
мм/ч
давл.,
гПа
погр.,
м
24 сентября, пт
пт2400:00+8юв41282100 0.0 1018569
03:00+8юв41185100 0.1 1016627
06:00+8юв51392100 0.6 1014905
09:00+8юв61391100 1.8 10141036
12:00+8юв51192100 0.3 1014829
15:00+8юв41095100 0.5 1014700
18:00+8юв41096100 0.3 1014652
21:00+8юв3997100 0.3 1013547
25 сентября, сб
сб2500:00+8юв3997100 0.6 1013539
03:00+8юв2798100 1.4 1012450
06:00+7юв3798100 0.6 1012390
09:00+8юв2698100 0.9 1011428
12:00+8юв3697100 0.9 1011467
15:00+7юв3797100 1.8 1011476
18:00+7юв3897100 0.4 1012554
21:00+7юв3897100 0.6 1012531
26 сентября, вс
вс2600:00+7юв3798100 0.9 1012465
03:00+7вюв3698100 1.2 1012353
06:00+6вюв3798100 0.1 1012356
09:00+7вюв2494100 0.1 1013279
12:00+8в2487100 0.0 1014544
15:00+8всв2589100 0.1 1015347
18:00+7св3795100 0.0 1017364
21:00+7всв3795100 0.0 1019445
27 сентября, пн
пн2700:00+7св3895100 0.0 1020548
03:00+6св3896100 0.1 1021535
06:00+6всв3795100 0.1 1023658
09:00+6всв479089 0.1 1025705
12:00+8всв457098 0.0 1027936
15:00+9в3564100 0.0 10281102
18:00+7всв2472100 0.0 102995
21:00+5всв228213 0.0 103025
28 сентября, вт
вт2800:00+3ссв0191100 0.0 103110
03:00+3ссз11915 0.0 103211
06:00+2ссз22945 0.0 103216
09:00+7ссз2374100 0.0 1031338
12:00+8сз2371100 0.0 1031456
15:00+9зсз2574100 0.0 1030519
18:00+8з2883100 0.0 1030256
21:00+6зсз2795100 0.0 1030145